GW2821 Weather Reports


time (UTC)temp
C
wind
direction
speed
KPH
gust
KPH
rain 1hr
cm
rain 24hr
cm
rain mn
cm
humidity
%
barometer
mb
20260504234307 11 33 22.5 30.6 0.00 0.00 0.00 45
20260504233315 12 31 16.1 17.7 0.00 0.00 0.00 44
20260504232307 12 27 14.5 20.9 0.00 0.00 0.00 42
20260504231244 12 25 25.7 30.6 0.00 0.00 0.00 41
20260504230339 12 1 11.3 20.9 0.00 0.00 0.00 42
20260504224916 13 348 16.1 20.9 0.00 0.00 0.00 39
20260504223820 13 349 16.1 17.7 0.00 0.00 0.00 40
20260504222814 13 6 22.5 27.4 0.00 0.00 0.00 40
20260504221836 12 48 11.3 17.7 0.00 0.00 0.00 41
20260504220915 12 352 17.7 27.4 0.00 0.00 0.00 41
20260504215523 13 356 16.1 24.1 0.00 0.00 0.00 41
20260504214251 12 21 9.7 14.5 0.00 0.00 0.00 41
20260504210801 13 310 20.9 24.1 0.00 0.00 0.00 38
20260504205645 13 307 22.5 25.7 0.00 0.00 0.00 38
20260504201020 11 315 8.0 9.7 0.00 0.00 0.00 42
20260504195940 11 36 8.0 9.7 0.00 0.00 0.00 42
20260504195004 11 43 9.7 12.9 0.00 0.00 0.00 43
20260504193956 11 70 12.9 14.5 0.00 0.00 0.00 43
20260504192948 11 38 16.1 20.9 0.00 0.00 0.00 43
20260504191659 11 68 8.0 11.3 0.00 0.00 0.00 46
20260504190636 11 311 14.5 20.9 0.00 0.00 0.00 48
20260504185631 10 322 14.5 17.7 0.00 0.00 0.00 47
20260504184638 11 40 11.3 22.5 0.00 0.00 0.00 49
20260504183332 11 27 17.7 22.5 0.00 0.00 0.00 47
20260504182328 11 354 11.3 14.5 0.00 0.00 0.00 48
20260504181317 11 40 12.9 16.1 0.00 0.00 0.00 44
20260504181020 12 22 19.3 22.5 0.00 0.00 0.00 43
20260504175108 13 26 17.7 20.9 0.00 0.00 0.00 41
20260504173956 12 29 14.5 17.7 0.00 0.00 0.00 40
20260504173332 11 29 11.3 14.5 0.00 0.00 0.00 44
20260504171957 12 28 24.1 30.6 0.00 0.00 0.00 42
20260504170932 12 21 16.1 20.9 0.00 0.00 0.00 43
20260504160428 11 321 6.4 8.0 0.00 0.00 0.00 47
20260504150621 9 114 1.6 3.2 0.00 0.00 0.00 50
20260504140533 8 16 9.7 14.5 0.00 0.00 0.00 55
20260504130341 8 278 24.1 29.0 0.00 0.00 0.00 54
20260504070356 11 62 8.0 9.7 0.00 0.00 0.00 35
20260504060149 13 91 8.0 9.7 0.00 0.00 0.00 34
20260504000133 22 36 8.0 9.7 0.00 0.00 0.00 30